• In Österreich
  • Länderverzeichnis
  • Für 7 Tage
  • Wassertemperatur
  • Satellitenkarten
  • Wetterkarte
  • News
  • Widgets
  • user-avatar
    Anmelden

    Stündliche Wetter Carmen

    Heute, 23 September, Sonntag

    Zeit Temperatur Niederschläge Wind Luftdruck Luftfeuchtigkeit
    00:00 +28°C° 0.5 mm 4 m/S 758 mmHg 85%
    01:00 +27°C° 0 mm 4 m/S 758 mmHg 86%
    02:00 +27°C° 0 mm 3 m/S 758 mmHg 86%
    03:00 +27°C° 0 mm 3 m/S 758 mmHg 86%
    04:00 +27°C° 0 mm 3 m/S 758 mmHg 87%
    05:00 +27°C° 0 mm 3 m/S 758 mmHg 87%
    06:00 +27°C° 0 mm 3 m/S 758 mmHg 88%
    07:00 +28°C° 0 mm 3 m/S 758 mmHg 81%
    08:00 +30°C° 0 mm 3 m/S 759 mmHg 75%
    09:00 +31°C° 0 mm 3 m/S 759 mmHg 69%
    10:00 +33°C° 0 mm 3 m/S 759 mmHg 63%
    11:00 +35°C° 0 mm 2 m/S 758 mmHg 58%
    12:00 +36°C° 0 mm 2 m/S 758 mmHg 53%
    13:00 +36°C° 0 mm 3 m/S 757 mmHg 53%
    14:00 +36°C° 0 mm 3 m/S 757 mmHg 53%
    15:00 +36°C° 0 mm 4 m/S 756 mmHg 53%
    16:00 +34°C° 0.4 mm 4 m/S 756 mmHg 63%
    17:00 +32°C° 0.4 mm 4 m/S 756 mmHg 72%
    18:00 +29°C° 0.4 mm 4 m/S 756 mmHg 81%
    19:00 +29°C° 1.7 mm 4 m/S 757 mmHg 84%
    20:00 +28°C° 1.7 mm 4 m/S 758 mmHg 87%
    21:00 +27°C° 1.7 mm 4 m/S 758 mmHg 90%
    22:00 +27°C° 2.5 mm 4 m/S 758 mmHg 90%
    23:00 +27°C° 2.5 mm 3 m/S 758 mmHg 90%

    Morgen, 24 September, Montag

    Zeit Temperatur Niederschläge Wind Luftdruck Luftfeuchtigkeit
    00:00 +27°C° 2.5 mm 3 m/S 758 mmHg 91%
    01:00 +27°C° 0.3 mm 3 m/S 758 mmHg 91%
    02:00 +27°C° 0.3 mm 2 m/S 758 mmHg 91%
    03:00 +27°C° 0.3 mm 2 m/S 758 mmHg 91%
    04:00 +26°C° 0 mm 2 m/S 758 mmHg 92%
    05:00 +26°C° 0 mm 2 m/S 758 mmHg 93%
    06:00 +26°C° 0 mm 3 m/S 758 mmHg 94%
    07:00 +28°C° 0 mm 3 m/S 758 mmHg 86%
    08:00 +29°C° 0 mm 3 m/S 759 mmHg 79%
    09:00 +31°C° 0 mm 3 m/S 759 mmHg 71%
    10:00 +33°C° 0.3 mm 3 m/S 759 mmHg 68%
    11:00 +33°C° 0.3 mm 3 m/S 759 mmHg 65%
    12:00 +34°C° 0.3 mm 3 m/S 759 mmHg 61%
    13:00 +35°C° 0 mm 3 m/S 758 mmHg 59%
    14:00 +35°C° 0 mm 3 m/S 757 mmHg 57%
    15:00 +35°C° 0 mm 3 m/S 757 mmHg 55%
    16:00 +34°C° 0 mm 3 m/S 757 mmHg 61%
    17:00 +31°C° 0 mm 3 m/S 757 mmHg 67%
    18:00 +29°C° 0 mm 3 m/S 757 mmHg 74%
    19:00 +29°C° 0.1 mm 3 m/S 758 mmHg 76%
    20:00 +28°C° 0.1 mm 3 m/S 758 mmHg 78%
    21:00 +27°C° 0.1 mm 3 m/S 759 mmHg 80%
    22:00 +27°C° 0 mm 3 m/S 759 mmHg 80%
    23:00 +27°C° 0 mm 3 m/S 759 mmHg 81%

    übermorgen, 25 September, Dienstag

    Zeit Temperatur Niederschläge Wind Luftdruck Luftfeuchtigkeit
    00:00 +26°C° 0 mm 3 m/S 759 mmHg 82%
    01:00 +26°C° 0 mm 3 m/S 759 mmHg 82%
    02:00 +26°C° 0 mm 3 m/S 758 mmHg 82%
    03:00 +26°C° 0 mm 4 m/S 758 mmHg 83%
    04:00 +26°C° 0 mm 4 m/S 758 mmHg 83%
    05:00 +26°C° 0 mm 4 m/S 758 mmHg 82%
    06:00 +26°C° 0 mm 4 m/S 758 mmHg 82%
    07:00 +28°C° 0 mm 4 m/S 759 mmHg 79%
    08:00 +29°C° 0 mm 4 m/S 759 mmHg 76%
    09:00 +30°C° 0 mm 4 m/S 760 mmHg 72%
    10:00 +32°C° 0 mm 4 m/S 760 mmHg 67%
    11:00 +34°C° 0 mm 3 m/S 759 mmHg 61%
    12:00 +35°C° 0 mm 3 m/S 759 mmHg 55%
    13:00 +35°C° 0 mm 3 m/S 758 mmHg 55%
    14:00 +36°C° 0 mm 3 m/S 757 mmHg 54%
    15:00 +36°C° 0 mm 3 m/S 757 mmHg 54%
    16:00 +34°C° 0.1 mm 3 m/S 757 mmHg 60%
    17:00 +33°C° 0.1 mm 4 m/S 757 mmHg 66%
    18:00 +30°C° 0.1 mm 4 m/S 757 mmHg 72%
    19:00 +30°C° 0 mm 4 m/S 758 mmHg 75%
    20:00 +29°C° 0 mm 4 m/S 759 mmHg 78%
    21:00 +29°C° 0 mm 4 m/S 759 mmHg 81%
    22:00 +28°C° 0 mm 5 m/S 759 mmHg 81%
    23:00 +28°C° 0 mm 5 m/S 759 mmHg 80%

    26 September, Mittwoch

    Zeit Temperatur Niederschläge Wind Luftdruck Luftfeuchtigkeit
    00:00 +28°C° 0 mm 5 m/S 759 mmHg 80%
    01:00 +28°C° 0 mm 5 m/S 759 mmHg 81%
    02:00 +28°C° 0 mm 5 m/S 758 mmHg 82%
    03:00 +27°C° 0 mm 5 m/S 758 mmHg 83%
    04:00 +27°C° 0 mm 5 m/S 758 mmHg 84%
    05:00 +27°C° 0 mm 5 m/S 758 mmHg 84%
    06:00 +27°C° 0 mm 5 m/S 758 mmHg 84%
    07:00 +28°C° 0 mm 5 m/S 759 mmHg 79%
    08:00 +30°C° 0 mm 5 m/S 759 mmHg 74%
    09:00 +32°C° 0 mm 5 m/S 760 mmHg 69%
    10:00 +33°C° 0 mm 5 m/S 759 mmHg 64%
    11:00 +34°C° 0 mm 4 m/S 759 mmHg 60%
    12:00 +36°C° 0 mm 3 m/S 758 mmHg 55%
    13:00 +36°C° 0 mm 3 m/S 757 mmHg 55%
    14:00 +36°C° 0 mm 3 m/S 757 mmHg 55%
    15:00 +36°C° 0 mm 3 m/S 756 mmHg 55%
    16:00 +34°C° 0.1 mm 3 m/S 756 mmHg 61%
    17:00 +33°C° 0.1 mm 4 m/S 756 mmHg 68%
    18:00 +32°C° 0.1 mm 5 m/S 757 mmHg 74%
    19:00 +30°C° 0.9 mm 5 m/S 757 mmHg 79%
    20:00 +29°C° 0.9 mm 5 m/S 758 mmHg 84%
    21:00 +28°C° 0.9 mm 5 m/S 758 mmHg 89%
    22:00 +28°C° 0.5 mm 4 m/S 758 mmHg 90%
    23:00 +28°C° 0.5 mm 4 m/S 758 mmHg 90%

    27 September, Donnerstag

    Zeit Temperatur Niederschläge Wind Luftdruck Luftfeuchtigkeit
    00:00 +27°C° 0.5 mm 3 m/S 758 mmHg 91%
    01:00 +27°C° 0 mm 3 m/S 757 mmHg 91%
    02:00 +27°C° 0 mm 4 m/S 757 mmHg 92%
    03:00 +26°C° 0 mm 4 m/S 757 mmHg 92%
    04:00 +26°C° 0 mm 4 m/S 757 mmHg 92%
    05:00 +26°C° 0 mm 4 m/S 758 mmHg 93%
    06:00 +25°C° 0 mm 4 m/S 758 mmHg 93%
    07:00 +27°C° 0 mm 4 m/S 758 mmHg 86%
    08:00 +29°C° 0 mm 4 m/S 759 mmHg 78%
    09:00 +32°C° 0 mm 4 m/S 759 mmHg 71%
    10:00 +33°C° 0 mm 3 m/S 759 mmHg 65%
    11:00 +34°C° 0 mm 3 m/S 758 mmHg 59%
    12:00 +36°C° 0 mm 2 m/S 758 mmHg 54%
    13:00 +36°C° 0.1 mm 2 m/S 757 mmHg 54%
    14:00 +36°C° 0.1 mm 3 m/S 756 mmHg 54%
    15:00 +36°C° 0.1 mm 3 m/S 756 mmHg 54%
    16:00 +34°C° 0.3 mm 3 m/S 756 mmHg 62%
    17:00 +33°C° 0.3 mm 3 m/S 756 mmHg 71%
    18:00 +30°C° 0.3 mm 3 m/S 757 mmHg 79%
    19:00 +29°C° 0.8 mm 4 m/S 757 mmHg 83%
    20:00 +28°C° 0.8 mm 4 m/S 758 mmHg 88%
    21:00 +28°C° 0.8 mm 4 m/S 758 mmHg 92%
    22:00 +27°C° 0.8 mm 4 m/S 758 mmHg 92%
    23:00 +27°C° 0.8 mm 4 m/S 758 mmHg 93%

    28 September, Freitag

    Zeit Temperatur Niederschläge Wind Luftdruck Luftfeuchtigkeit
    00:00 +27°C° 0.8 mm 3 m/S 758 mmHg 93%
    01:00 +27°C° 0.4 mm 3 m/S 758 mmHg 93%
    02:00 +26°C° 0.4 mm 4 m/S 758 mmHg 94%
    03:00 +26°C° 0.4 mm 4 m/S 757 mmHg 94%
    04:00 +26°C° 0 mm 4 m/S 758 mmHg 94%
    05:00 +26°C° 0 mm 4 m/S 758 mmHg 94%
    06:00 +26°C° 0 mm 4 m/S 759 mmHg 95%
    07:00 +27°C° 0 mm 4 m/S 759 mmHg 89%
    08:00 +28°C° 0 mm 4 m/S 759 mmHg 84%
    09:00 +30°C° 0 mm 4 m/S 760 mmHg 79%
    10:00 +31°C° 0 mm 3 m/S 759 mmHg 72%
    11:00 +34°C° 0 mm 3 m/S 759 mmHg 65%
    12:00 +35°C° 0 mm 2 m/S 758 mmHg 58%
    13:00 +35°C° 0.1 mm 3 m/S 758 mmHg 59%
    14:00 +35°C° 0.1 mm 3 m/S 757 mmHg 59%
    15:00 +35°C° 0.1 mm 4 m/S 756 mmHg 60%
    16:00 +33°C° 1.2 mm 4 m/S 757 mmHg 70%
    17:00 +30°C° 1.2 mm 4 m/S 757 mmHg 80%
    18:00 +28°C° 1.2 mm 4 m/S 758 mmHg 91%
    19:00 +28°C° 2.1 mm 4 m/S 758 mmHg 91%
    20:00 +27°C° 2.1 mm 4 m/S 759 mmHg 91%
    21:00 +27°C° 2.1 mm 5 m/S 759 mmHg 91%
    22:00 +27°C° 1.2 mm 4 m/S 759 mmHg 91%
    23:00 +27°C° 1.2 mm 4 m/S 759 mmHg 91%
    Mehr zeigen